La Crosse, WI

9:36 AM CST on December 18, 2017 (GMT -0600)
La Crosse Municipal

Weather History for KLSE - July, 2013

Change the Weather History Date:

Sunday, July 7, 2013

  Actual Average Record
Temperature  
Mean Temperature 83 °F 74 °F  
Max Temperature 90 °F 84 °F 104 °F (1980)
Min Temperature 75 °F 63 °F 46 °F (1997)
Degree Days  
Heating Degree Days 0 0  
Month to date heating degree days 0 0  
Since 1 June heating degree days 44  
Since 1 July heating degree days 0 0  
Cooling Degree Days 18 9  
Month to date cooling degree days 71 62  
Year to date cooling degree days 285 276  
Since 1 June cooling degree days 225  
Growing Degree Days 32 (Base 50)    
Moisture  
Dew Point 68 °F    
Average Humidity 63    
Maximum Humidity 74    
Minimum Humidity 51    
Precipitation  
Precipitation 0.00 in 0.14 in 3.40 in (1879)
Month to date precipitation 0.14 0.96  
Year to date precipitation 24.89 16.37  
Snow  
Snow 0.00 in 0.00 in 0.00 in (2002)
Month to date snowfall 0.0 0.0  
Since 1 June snowfall 0.0  
Since 1 July snowfall 0.0 0.0  
Snow Depth 0.00 in    
Sea Level Pressure  
Sea Level Pressure 29.85 in    
Wind  
Wind Speed 10 mph (South)    
Max Wind Speed 17 mph    
Max Gust Speed 22 mph    
Visibility 10 miles    
Events      
T = Trace of Precipitation, MM = Missing Value Source: NWS Daily Summary

Daily Weather History Graph

Daily Weather History Graph

Search for Another Location

Airport or City:

Trip Planner

Search our weather history database for the weather conditions in past years. The results will help you decide how hot, cold, wet, or windy it might be!

Date:

Astronomy

Jul. 07, 2013 Rise Set
Actual Time 5:30 AM CDT 8:49 PM CDT
Civil Twilight 4:54 AM CDT 9:24 PM CDT
Nautical Twilight 4:08 AM CDT 10:10 PM CDT
Astronomical Twilight 3:11 AM CDT 11:07 PM CDT
Moon 5:08 AM CDT (7/7) 8:10 PM CDT (7/7)
Length of Visible Light 16h 29m
Length of Day
15h 18m
Waning Crescent, 0% of the Moon is Illuminated
Jul 7
Waning Crescent
Jul 8
New
Jul 15
First Quarter
Jul 22
Full
Jul 29
Last Quarter

Hourly Weather History & Observations

Time (CDT) Temp. Heat Index Dew Point Humidity Pressure Visibility Wind Dir Wind Speed Gust Speed Precip Events Conditions
12:53 AM 77.0 °F - 64.9 °F 66% 29.88 in 10.0 mi South 4.6 mph - N/A   Clear
1:53 AM 77.0 °F - 66.0 °F 69% 29.87 in 10.0 mi South 6.9 mph - N/A   Clear
2:53 AM 77.0 °F - 66.0 °F 69% 29.86 in 10.0 mi South 8.1 mph - N/A   Clear
3:53 AM 75.9 °F - 66.0 °F 71% 29.86 in 10.0 mi South 8.1 mph - N/A   Clear
4:53 AM 75.9 °F - 66.0 °F 71% 29.86 in 10.0 mi South 10.4 mph - N/A   Clear
5:53 AM 75.0 °F - 64.9 °F 71% 29.86 in 10.0 mi South 9.2 mph - N/A   Clear
6:53 AM 75.0 °F - 66.0 °F 73% 29.87 in 10.0 mi South 9.2 mph - N/A   Clear
7:53 AM 75.0 °F - 66.0 °F 73% 29.88 in 10.0 mi South 10.4 mph - N/A   Clear
8:53 AM 75.9 °F - 66.9 °F 74% 29.88 in 10.0 mi South 11.5 mph - N/A   Partly Cloudy
9:53 AM 77.0 °F - 66.9 °F 71% 29.89 in 10.0 mi South 11.5 mph - N/A   Partly Cloudy
10:53 AM 80.1 °F 82.3 °F 66.9 °F 64% 29.88 in 10.0 mi South 10.4 mph - N/A   Clear
11:53 AM 84.0 °F 87.0 °F 68.0 °F 58% 29.86 in 10.0 mi South 10.4 mph - N/A   Clear
12:53 PM 88.0 °F 91.4 °F 68.0 °F 51% 29.86 in 10.0 mi South 10.4 mph - N/A   Clear
1:53 PM 86.0 °F 88.8 °F 66.9 °F 53% 29.86 in 10.0 mi South 6.9 mph - N/A   Clear
2:53 PM 88.0 °F 92.1 °F 69.1 °F 53% 29.85 in 10.0 mi SSE 8.1 mph - N/A   Partly Cloudy
3:53 PM 88.0 °F 91.4 °F 68.0 °F 51% 29.84 in 10.0 mi South 11.5 mph 20.7 mph N/A   Mostly Cloudy
4:53 PM 89.1 °F 93.7 °F 69.1 °F 52% 29.83 in 10.0 mi South 11.5 mph - N/A   Partly Cloudy
5:53 PM 89.1 °F 93.7 °F 69.1 °F 52% 29.82 in 10.0 mi South 13.8 mph - N/A   Mostly Cloudy
6:53 PM 87.1 °F 91.3 °F 69.1 °F 55% 29.82 in 10.0 mi South 12.7 mph - N/A   Clear
7:53 PM 86.0 °F 90.1 °F 69.1 °F 57% 29.82 in 10.0 mi South 11.5 mph 18.4 mph N/A   Partly Cloudy
8:53 PM 84.0 °F 87.8 °F 69.1 °F 61% 29.83 in 10.0 mi South 5.8 mph - N/A   Partly Cloudy
9:53 PM 84.0 °F 88.4 °F 70.0 °F 63% 29.84 in 10.0 mi South 8.1 mph - N/A   Overcast
10:53 PM 82.9 °F 87.0 °F 70.0 °F 65% 29.84 in 10.0 mi South 10.4 mph - N/A   Mostly Cloudy
11:53 PM 82.0 °F 85.9 °F 70.0 °F 67% 29.83 in 10.0 mi South 11.5 mph - N/A   Clear